Location: Unspecified
(48.8656°N, 0.0000°E)
Time: 03:17:43
(UTC+00:00)

Transit 2A Rocket - Pass Details

Date: 19 June 2019
Orbit: 588 x 915 km, 66.7° (Epoch: 17 July)

Event Time Altitude Azimuth Distance (km) Brightness Sun altitude
Rises 12:36:45 0° 249° (WSW) 3,545 8.7 63.6°
Reaches altitude 10° 12:39:35 10° 259° (WSW) 2,596 8.1 63.5°
Maximum altitude 12:44:59 32° 321° (NW) 1,474 6.8 63.1°
Drops below altitude 10° 12:50:11 10° 24° (NNE) 2,491 7.5 62.8°
Sets 12:52:51 0° 35° (NE) 3,381 8.1 62.6°
